�������l�o���
Date,Time,MP-1(��Sv/h),MP-2(��Sv/h),MP-3(��Sv/h),MP-4(��Sv/h),MP-5(��Sv/h),MP-6(��Sv/h),MP-7(��Sv/h),MP-8(��Sv/h),����,����(m/s),���J
2017/04/30,00:00,1.003,1.603,1.082,1.958,1.334,0.541,0.994,0.919,��,7.7,��
2017/04/30,00:10,1.001,1.607,1.080,1.955,1.333,0.542,0.994,0.920,���k��,7.5,��
2017/04/30,00:20,1.002,1.606,1.082,1.960,1.329,0.542,0.995,0.920,���k��,7.9,��
2017/04/30,00:30,1.002,1.606,1.082,1.958,1.332,0.543,0.994,0.919,�k��,7.4,��
2017/04/30,00:40,1.002,1.608,1.083,1.960,1.333,0.543,0.995,0.920,�k��,7.6,��
2017/04/30,00:50,1.002,1.607,1.083,1.961,1.332,0.541,0.996,0.921,�k��,7.8,��
2017/04/30,01:00,1.002,1.608,1.083,1.962,1.331,0.542,0.995,0.921,�k��,6.6,��
2017/04/30,01:10,1.000,1.607,1.081,1.964,1.332,0.542,0.994,0.920,�k��,6.6,��
2017/04/30,01:20,1.001,1.607,1.084,1.962,1.331,0.543,0.998,0.919,�k��,5.4,��
2017/04/30,01:30,1.002,1.608,1.085,1.964,1.331,0.542,0.994,0.919,�k��,4.7,��
2017/04/30,01:40,1.000,1.610,1.085,1.958,1.329,0.541,0.995,0.919,�k��,3.8,��
2017/04/30,01:50,1.004,1.609,1.083,1.962,1.333,0.542,0.996,0.918,�k��,3.6,��
2017/04/30,02:00,1.000,1.608,1.083,1.960,1.334,0.542,0.995,0.921,�k��,3.3,��
2017/04/30,02:10,1.001,1.607,1.083,1.960,1.330,0.542,0.994,0.918,�k��,2.3,��
2017/04/30,02:20,1.001,1.608,1.081,1.960,1.331,0.542,0.994,0.920,�k��,3.2,��
2017/04/30,02:30,1.000,1.607,1.083,1.958,1.330,0.542,0.995,0.918,�k�k��,4.3,��
2017/04/30,02:40,1.004,1.607,1.081,1.961,1.327,0.540,0.995,0.919,�k��,5.3,��
2017/04/30,02:50,1.002,1.607,1.085,1.959,1.330,0.542,0.993,0.918,�k��,5.4,��
2017/04/30,03:00,1.001,1.606,1.084,1.959,1.332,0.544,0.994,0.921,�k��,4.2,��
2017/04/30,03:10,1.002,1.608,1.084,1.959,1.333,0.543,0.994,0.919,�k��,3.1,��
2017/04/30,03:20,1.001,1.608,1.083,1.959,1.328,0.542,0.994,0.919,�k��,2.3,��
2017/04/30,03:30,1.001,1.607,1.082,1.960,1.333,0.541,0.993,0.918,���k��,3.3,��
2017/04/30,03:40,1.001,1.606,1.085,1.960,1.330,0.540,0.995,0.918,�k��,2.8,��
2017/04/30,03:50,1.001,1.608,1.085,1.963,1.331,0.542,0.993,0.920,�k��,5.3,��
2017/04/30,04:00,1.002,1.607,1.085,1.961,1.331,0.540,0.994,0.919,�k��,6.3,��
2017/04/30,04:10,1.001,1.605,1.084,1.961,1.331,0.541,0.995,0.918,�k��,5.8,��
2017/04/30,04:20,0.999,1.605,1.082,1.958,1.331,0.541,0.994,0.919,�k��,5.9,��
2017/04/30,04:30,1.000,1.607,1.084,1.961,1.331,0.542,0.995,0.919,�k��,3.9,��
2017/04/30,04:40,1.002,1.607,1.083,1.960,1.330,0.542,0.994,0.919,�k�k��,3.8,��
2017/04/30,04:50,1.000,1.607,1.084,1.957,1.332,0.542,0.993,0.920,�k��,4.1,��
2017/04/30,05:00,1.001,1.608,1.082,1.959,1.329,0.542,0.993,0.918,�k�k��,3.3,��
2017/04/30,05:10,1.001,1.609,1.082,1.956,1.331,0.540,0.993,0.919,���k��,0.9,��
2017/04/30,05:20,1.001,1.609,1.081,1.959,1.330,0.541,0.992,0.918,��쐼,1.1,��
2017/04/30,05:30,1.000,1.608,1.082,1.961,1.331,0.541,0.993,0.919,-,CALM,��
2017/04/30,05:40,1.001,1.606,1.083,1.961,1.332,0.541,0.993,0.918,��,0.6,��
2017/04/30,05:50,0.999,1.608,1.084,1.961,1.330,0.541,0.995,0.919,��쓌,1.5,��
2017/04/30,06:00,0.999,1.609,1.081,1.960,1.331,0.540,0.994,0.919,��,1.4,��
2017/04/30,06:10,1.000,1.609,1.084,1.962,1.330,0.542,0.994,0.920,��쓌,1.7,��
2017/04/30,06:20,0.999,1.608,1.083,1.961,1.331,0.542,0.995,0.918,��쓌,3.2,��
2017/04/30,06:30,1.003,1.611,1.083,1.963,1.332,0.542,0.995,0.919,��쓌,3.1,��
2017/04/30,06:40,1.003,1.608,1.082,1.963,1.333,0.541,0.995,0.920,��쓌,3.4,��
2017/04/30,06:50,1.000,1.611,1.084,1.962,1.333,0.542,0.996,0.920,��쓌,3.7,��
2017/04/30,07:00,1.002,1.614,1.086,1.963,1.332,0.541,0.997,0.919,��,2.6,��
2017/04/30,07:10,1.000,1.614,1.085,1.961,1.336,0.542,0.996,0.921,��쓌,3.1,��
2017/04/30,07:20,1.004,1.614,1.087,1.967,1.334,0.542,0.996,0.920,��쓌,3.5,��
2017/04/30,07:30,1.004,1.614,1.086,1.962,1.334,0.541,0.997,0.919,��쓌,4.2,��
2017/04/30,07:40,1.004,1.612,1.087,1.966,1.335,0.539,0.995,0.919,��쓌,3.4,��
2017/04/30,07:50,1.003,1.614,1.084,1.965,1.336,0.541,0.996,0.922,��쓌,2.5,��
2017/04/30,08:00,1.006,1.617,1.090,1.965,1.336,0.541,0.996,0.921,��쓌,2.9,��
2017/04/30,08:10,1.003,1.613,1.084,1.965,1.338,0.541,0.997,0.919,�쓌,2.3,��
2017/04/30,08:20,1.005,1.616,1.087,1.966,1.337,0.540,0.998,0.919,�쓌,3.0,��
2017/04/30,08:30,1.006,1.618,1.088,1.966,1.337,0.543,0.997,0.920,�쓌,3.9,��
2017/04/30,08:40,1.005,1.616,1.088,1.963,1.338,0.540,0.995,0.920,��쓌,4.7,��
2017/04/30,08:50,1.006,1.619,1.087,1.967,1.340,0.542,0.994,0.918,��쓌,6.3,��
2017/04/30,09:00,1.006,1.619,1.089,1.969,1.343,0.542,0.995,0.919,��쓌,6.2,��
2017/04/30,09:10,1.008,1.621,1.088,1.968,1.343,0.541,0.996,0.917,��쓌,5.5,��
2017/04/30,09:20,1.011,1.618,1.089,1.966,1.342,0.543,0.993,0.917,��쓌,6.4,��
2017/04/30,09:30,1.008,1.622,1.091,1.969,1.345,0.543,0.995,0.918,��쓌,7.7,��
2017/04/30,09:40,1.010,1.625,1.088,1.971,1.344,0.542,0.995,0.918,��쓌,8.1,��
2017/04/30,09:50,1.010,1.625,1.091,1.971,1.345,0.543,0.998,0.917,��쓌,10.0,��
2017/04/30,10:00,1.009,1.629,1.089,1.974,1.347,0.545,0.997,0.918,��쓌,12.0,��
2017/04/30,10:10,1.010,1.627,1.093,1.973,1.346,0.545,0.995,0.918,��쓌,12.5,��
2017/04/30,10:20,1.013,1.627,1.091,1.973,1.350,0.544,0.996,0.919,��쓌,13.4,��
2017/04/30,10:30,1.015,1.631,1.094,1.974,1.349,0.544,0.998,0.920,��쓌,13.0,��
2017/04/30,10:40,1.012,1.631,1.095,1.972,1.352,0.546,0.998,0.920,��쓌,12.0,��
2017/04/30,10:50,1.013,1.633,1.092,1.975,1.351,0.546,0.998,0.919,��쓌,13.3,��
2017/04/30,11:00,1.013,1.630,1.093,1.977,1.352,0.546,0.999,0.920,��쓌,11.3,��
2017/04/30,11:10,1.015,1.633,1.095,1.973,1.357,0.546,0.999,0.921,��,9.9,��
2017/04/30,11:20,1.018,1.635,1.095,1.974,1.354,0.546,0.998,0.921,��,9.6,��
2017/04/30,11:30,1.018,1.637,1.097,1.971,1.356,0.547,1.001,0.921,��,9.3,��
2017/04/30,11:40,1.016,1.637,1.097,1.973,1.358,0.545,1.001,0.921,��,9.8,��
2017/04/30,11:50,1.020,1.640,1.098,1.975,1.359,0.548,1.001,0.922,��쓌,11.8,��
2017/04/30,12:00,1.019,1.636,1.098,1.975,1.359,0.547,1.000,0.922,��쓌,12.7,��
2017/04/30,12:10,1.019,1.640,1.098,1.976,1.359,0.547,1.000,0.920,��,11.5,��
2017/04/30,12:20,1.020,1.642,1.099,1.977,1.361,0.545,1.002,0.923,��,10.7,��
2017/04/30,12:30,1.021,1.642,1.099,1.978,1.363,0.546,1.000,0.923,��쓌,12.0,��
2017/04/30,12:40,1.022,1.642,1.098,1.977,1.362,0.547,1.003,0.922,��,10.7,��
2017/04/30,12:50,1.023,1.644,1.100,1.975,1.366,0.547,1.001,0.922,��,12.5,��
2017/04/30,13:00,1.023,1.645,1.102,1.980,1.365,0.547,1.002,0.921,��,11.3,��
2017/04/30,13:10,1.021,1.647,1.102,1.979,1.364,0.548,1.003,0.922,��쓌,15.0,��
2017/04/30,13:20,1.024,1.644,1.102,1.983,1.363,0.547,1.002,0.921,��,16.0,��
2017/04/30,13:30,1.022,1.647,1.102,1.983,1.366,0.548,1.000,0.922,��쓌,17.4,��
2017/04/30,13:40,1.020,1.646,1.100,1.982,1.365,0.548,1.002,0.921,��쓌,15.0,��
2017/04/30,13:50,1.024,1.648,1.102,1.982,1.367,0.550,0.999,0.923,��,15.2,��
2017/04/30,14:00,1.024,1.647,1.101,1.980,1.369,0.550,1.003,0.921,��,13.6,��
2017/04/30,14:10,1.021,1.648,1.102,1.979,1.367,0.550,1.003,0.923,��쓌,12.7,��
2017/04/30,14:20,1.025,1.647,1.102,1.984,1.367,0.549,1.005,0.923,��,11.4,��
2017/04/30,14:30,1.029,1.650,1.106,1.980,1.367,0.550,1.004,0.924,��,9.8,��
2017/04/30,14:40,1.027,1.648,1.106,1.985,1.368,0.548,1.005,0.925,��,11.7,��
2017/04/30,14:50,1.028,1.650,1.105,1.984,1.367,0.552,1.005,0.923,��,11.3,��
2017/04/30,15:00,1.027,1.648,1.103,1.985,1.373,0.549,1.004,0.926,��,11.6,��
2017/04/30,15:10,1.027,1.654,1.105,1.987,1.370,0.549,1.005,0.925,��,13.3,��
2017/04/30,15:20,1.028,1.650,1.105,1.985,1.372,0.549,1.005,0.925,��,11.0,��
2017/04/30,15:30,1.028,1.650,1.106,1.987,1.370,0.552,1.003,0.923,��,11.6,��
2017/04/30,15:40,1.028,1.650,1.104,1.985,1.370,0.549,1.004,0.923,��,13.5,��
2017/04/30,15:50,1.028,1.650,1.104,1.985,1.369,0.549,1.004,0.924,��,13.9,��
2017/04/30,16:00,1.029,1.651,1.107,1.985,1.371,0.548,1.003,0.923,��,12.0,��
2017/04/30,16:10,1.028,1.650,1.104,1.987,1.369,0.548,1.003,0.923,��,13.0,��
2017/04/30,16:20,1.029,1.652,1.108,1.984,1.369,0.547,1.004,0.924,��,10.2,��
2017/04/30,16:30,1.026,1.648,1.106,1.987,1.373,0.550,1.004,0.922,��,10.8,��
2017/04/30,16:40,1.027,1.652,1.104,1.987,1.372,0.548,1.004,0.923,��,10.2,��
2017/04/30,16:50,1.028,1.649,1.104,1.986,1.371,0.550,1.005,0.924,��,10.0,��
2017/04/30,17:00,1.027,1.654,1.104,1.986,1.368,0.549,1.004,0.925,��,9.3,��
2017/04/30,17:10,1.026,1.653,1.107,1.984,1.370,0.549,1.004,0.925,��,11.6,��
2017/04/30,17:20,1.027,1.650,1.106,1.987,1.372,0.549,1.004,0.925,��,10.7,��
2017/04/30,17:30,1.027,1.653,1.105,1.981,1.370,0.548,1.003,0.925,��,10.0,��
2017/04/30,17:40,1.027,1.650,1.106,1.984,1.372,0.546,1.003,0.925,��,10.7,��
2017/04/30,17:50,1.027,1.654,1.106,1.986,1.372,0.548,1.003,0.927,��,9.6,��
2017/04/30,18:00,1.025,1.649,1.106,1.987,1.371,0.547,1.003,0.925,��,10.2,��
2017/04/30,18:10,1.027,1.650,1.104,1.987,1.371,0.546,1.003,0.927,��,9.7,��
2017/04/30,18:20,1.027,1.652,1.103,1.989,1.370,0.549,1.002,0.926,��,9.5,��
2017/04/30,18:30,1.026,1.651,1.106,1.984,1.370,0.547,1.002,0.925,��,8.6,��
2017/04/30,18:40,1.026,1.650,1.103,1.987,1.371,0.549,1.002,0.926,��,8.2,��
2017/04/30,18:50,1.026,1.652,1.104,1.990,1.371,0.547,1.003,0.926,��,5.8,��
2017/04/30,19:00,1.026,1.654,1.106,1.992,1.372,0.550,1.003,0.925,��,6.0,��
2017/04/30,19:10,1.030,1.654,1.104,1.989,1.373,0.550,1.004,0.926,��,6.5,��
2017/04/30,19:20,1.028,1.653,1.105,1.990,1.372,0.549,1.003,0.925,��,6.3,��
2017/04/30,19:30,1.028,1.653,1.109,1.985,1.374,0.548,1.004,0.924,��,5.7,��
2017/04/30,19:40,1.026,1.652,1.107,1.987,1.376,0.549,1.003,0.926,��쐼,4.8,��
2017/04/30,19:50,1.027,1.654,1.106,1.988,1.372,0.550,1.003,0.925,�쐼,4.7,��
2017/04/30,20:00,1.026,1.653,1.104,1.990,1.371,0.551,1.004,0.927,��,2.6,��
2017/04/30,20:10,1.025,1.650,1.104,1.984,1.371,0.549,1.004,0.925,��,3.2,��
2017/04/30,20:20,1.025,1.649,1.108,1.986,1.373,0.548,1.003,0.924,��쓌,3.3,��
2017/04/30,20:30,1.026,1.653,1.105,1.991,1.370,0.550,1.002,0.925,��,3.3,��
2017/04/30,20:40,1.025,1.651,1.105,1.989,1.371,0.550,1.005,0.926,��,4.3,��
2017/04/30,20:50,1.028,1.651,1.106,1.989,1.370,0.549,1.003,0.925,��쓌,5.3,��
2017/04/30,21:00,1.026,1.651,1.105,1.986,1.370,0.548,1.002,0.926,��쓌,5.0,��
2017/04/30,21:10,1.026,1.653,1.105,1.985,1.371,0.549,1.004,0.924,��,5.1,��
2017/04/30,21:20,1.024,1.650,1.102,1.986,1.369,0.549,1.004,0.925,��,5.6,��
2017/04/30,21:30,1.027,1.652,1.105,1.987,1.370,0.548,1.002,0.926,��쓌,4.8,��
2017/04/30,21:40,1.026,1.648,1.105,1.984,1.372,0.548,1.003,0.925,��쓌,4.8,��
2017/04/30,21:50,1.025,1.652,1.105,1.987,1.370,0.549,1.001,0.925,��,3.4,��
2017/04/30,22:00,1.027,1.650,1.103,1.986,1.370,0.549,1.003,0.925,��쓌,3.2,��
2017/04/30,22:10,1.024,1.648,1.107,1.984,1.369,0.548,1.001,0.925,��쓌,3.8,��
2017/04/30,22:20,1.025,1.650,1.105,1.985,1.370,0.548,1.002,0.924,��쓌,3.7,��
2017/04/30,22:30,1.024,1.650,1.104,1.988,1.368,0.547,1.001,0.924,��,2.5,��
2017/04/30,22:40,1.028,1.647,1.105,1.986,1.372,0.549,1.003,0.925,��쐼,4.2,��
2017/04/30,22:50,1.026,1.649,1.105,1.988,1.368,0.546,1.002,0.924,��쐼,4.6,��
2017/04/30,23:00,1.026,1.648,1.104,1.985,1.368,0.548,1.001,0.926,�쐼,3.5,��
2017/04/30,23:10,1.028,1.647,1.105,1.985,1.370,0.548,1.001,0.924,�쐼,4.4,��
2017/04/30,23:20,1.028,1.652,1.104,1.984,1.370,0.548,1.003,0.924,�쐼,5.3,��
2017/04/30,23:30,1.028,1.650,1.104,1.988,1.370,0.549,1.002,0.925,�쐼,6.7,��
2017/04/30,23:40,1.026,1.649,1.105,1.986,1.370,0.547,1.004,0.925,�쐼,6.1,��
2017/04/30,23:50,1.027,1.648,1.105,1.986,1.369,0.549,1.004,0.924,�쐼,6.0,��
